Time,TemperatureF,DewpointF,PressureIn,WindDirection,WindDirectionDegrees,WindSpeedMPH,WindSpeedGustMPH,Humidity,HourlyPrecipIn,Conditions,Clouds,dailyrainin,SoftwareType,DateUTC
2013-03-20 00:02:00,42.0,32.0,-100.00,WNW,289,10.0,15.0,67,-99.99,,,-99.99,,2013-03-20 07:02:00,
2013-03-20 00:12:00,42.0,32.0,-100.00,WNW,289,10.0,15.0,67,-99.99,,,-99.99,,2013-03-20 07:12:00,
2013-03-20 01:02:00,42.0,32.0,-100.00,WNW,303,8.0,12.0,67,-99.99,,,-99.99,,2013-03-20 08:02:00,
2013-03-20 01:12:00,42.0,32.0,-100.00,WNW,303,8.0,12.0,67,-99.99,,,-99.99,,2013-03-20 08:12:00,
2013-03-20 02:02:00,41.0,32.0,-100.00,SW,230,1.0,3.0,70,-99.99,,,-99.99,,2013-03-20 09:02:00,
2013-03-20 02:12:00,41.0,32.0,-100.00,SW,230,1.0,3.0,70,-99.99,,,-99.99,,2013-03-20 09:12:00,
2013-03-20 03:03:00,40.0,31.0,-100.00,WNW,292,3.0,3.0,69,-99.99,,,-99.99,,2013-03-20 10:03:00,
2013-03-20 03:12:00,40.0,31.0,-100.00,WNW,292,3.0,3.0,69,-99.99,,,-99.99,,2013-03-20 10:12:00,
2013-03-20 06:03:00,39.0,32.0,-100.00,East,91,5.0,9.0,75,-99.99,,,-99.99,,2013-03-20 13:03:00,
2013-03-20 06:12:00,39.0,32.0,-100.00,East,91,5.0,9.0,75,-99.99,,,-99.99,,2013-03-20 13:12:00,
2013-03-20 07:02:00,38.0,32.0,-100.00,East,90,3.0,8.0,78,-99.99,,,-99.99,,2013-03-20 14:02:00,
2013-03-20 07:12:00,38.0,32.0,-100.00,East,90,3.0,8.0,78,-99.99,,,-99.99,,2013-03-20 14:12:00,
2013-03-20 10:03:00,41.0,32.0,-100.00,NE,43,5.0,7.0,70,-99.99,,,-99.99,,2013-03-20 17:03:00,
2013-03-20 10:12:00,41.0,32.0,-100.00,NE,43,5.0,7.0,70,-99.99,,,-99.99,,2013-03-20 17:12:00,
2013-03-20 12:02:00,46.0,31.0,-100.00,ESE,111,3.0,5.0,55,-99.99,,,-99.99,,2013-03-20 19:02:00,
2013-03-20 13:02:00,52.0,31.0,-100.00,SW,227,14.0,23.0,44,-99.99,,,-99.99,,2013-03-20 20:02:00,
2013-03-20 14:02:00,59.0,31.0,-100.00,WSW,242,25.0,40.0,34,-99.99,,,-99.99,,2013-03-20 21:02:00,
2013-03-20 15:03:00,60.0,29.0,-100.00,WSW,239,28.0,48.0,30,-99.99,,,-99.99,,2013-03-20 22:03:00,
2013-03-20 15:12:00,60.0,29.0,-100.00,WSW,239,28.0,48.0,30,-99.99,,,-99.99,,2013-03-20 22:12:00,
2013-03-20 16:02:00,60.0,28.0,-100.00,WSW,242,25.0,39.0,29,-99.99,,,-99.99,,2013-03-20 23:02:00,
2013-03-20 16:12:00,60.0,28.0,-100.00,WSW,242,25.0,39.0,29,-99.99,,,-99.99,,2013-03-20 23:12:00,
2013-03-20 17:02:00,58.0,27.0,-100.00,WSW,241,28.0,43.0,30,-99.99,,,-99.99,,2013-03-21 00:02:00,
2013-03-20 17:12:00,58.0,27.0,-100.00,WSW,241,28.0,43.0,30,-99.99,,,-99.99,,2013-03-21 00:12:00,
2013-03-20 19:02:00,53.0,28.0,-100.00,WSW,239,21.0,35.0,37,-99.99,,,-99.99,,2013-03-21 02:02:00,
2013-03-20 19:12:00,53.0,28.0,-100.00,WSW,239,21.0,35.0,37,-99.99,,,-99.99,,2013-03-21 02:12:00,
2013-03-20 20:02:00,48.0,30.0,-100.00,SW,229,18.0,25.0,49,-99.99,,,-99.99,,2013-03-21 03:02:00,
2013-03-20 20:12:00,48.0,30.0,-100.00,SW,229,18.0,25.0,49,-99.99,,,-99.99,,2013-03-21 03:12:00,
2013-03-20 21:02:00,46.0,29.0,-100.00,WSW,240,18.0,27.0,51,-99.99,,,-99.99,,2013-03-21 04:02:00,
2013-03-20 21:12:00,46.0,29.0,-100.00,WSW,240,18.0,27.0,51,-99.99,,,-99.99,,2013-03-21 04:12:00,
2013-03-20 22:02:00,43.0,30.0,-100.00,SW,234,14.0,21.0,59,-99.99,,,-99.99,,2013-03-21 05:02:00,
2013-03-20 22:12:00,43.0,30.0,-100.00,SW,234,14.0,21.0,59,-99.99,,,-99.99,,2013-03-21 05:12:00,
2013-03-20 23:02:00,42.0,29.0,-100.00,SW,232,14.0,25.0,59,-99.99,,,-99.99,,2013-03-21 06:02:00,
2013-03-20 23:12:00,42.0,29.0,-100.00,SW,232,14.0,25.0,59,-99.99,,,-99.99,,2013-03-21 06:12:00,